This is the latest recevied weather packets stored in our database for station/object IQ8VX-3. If no packets are shown the sender has not sent any weather packets the latest 10 day(s).
| Time | Temp. | Humidity | Pressure | Rain* | Wind** | Luminosity | Snow |
|---|---|---|---|---|---|---|---|
| 1777425367 | 15.56° C | 75% | 1696.2 hPa | - | - | - | - |
| 1777424167 | 15.56° C | 80% | 1696.5 hPa | - | - | - | - |
| 1777422967 | 15.56° C | 78% | 1696.4 hPa | - | - | - | - |
| 1777421767 | 15.56° C | 76% | 1696.3 hPa | - | - | - | - |
| 1777420566 | 15.56° C | 77% | 1696.7 hPa | - | - | - | - |
| 1777419366 | 15.56° C | 78% | 1696.9 hPa | - | - | - | - |
| 1777418166 | 16.11° C | 74% | 1697 hPa | - | - | - | - |
| 1777416965 | 15.56° C | 69% | 1696.8 hPa | - | - | - | - |
| 1777415765 | 16.11° C | 65% | 1696.9 hPa | - | - | - | - |
| 1777414565 | 16.11° C | 58% | 1696.9 hPa | - | - | - | - |
| 1777413364 | 16.11° C | 62% | 1697.4 hPa | - | - | - | - |
| 1777412164 | 16.11° C | 60% | 1697.9 hPa | - | - | - | - |
| 1777410964 | 16.11° C | 58% | 1697.9 hPa | - | - | - | - |
| 1777409763 | 16.11° C | 55% | 1697.9 hPa | - | - | - | - |
| 1777408563 | 16.67° C | 53% | 1698.8 hPa | - | - | - | - |
| 1777407363 | 16.67° C | 52% | 1699 hPa | - | - | - | - |
| 1777406162 | 16.67° C | 53% | 1699.2 hPa | - | - | - | - |
| 1777404962 | 16.67° C | 54% | 1699.6 hPa | - | - | - | - |
| 1777403762 | 16.67° C | 56% | 1699.6 hPa | - | - | - | - |
| 1777402561 | 16.67° C | 61% | 1699.7 hPa | - | - | - | - |
| 1777401361 | 16.67° C | 68% | 1699.2 hPa | - | - | - | - |
| 1777400161 | 17.22° C | 77% | 1700.7 hPa | - | - | - | - |
| 1777398960 | 17.22° C | 83% | 1701.1 hPa | - | - | - | - |
| 1777397760 | 17.78° C | 82% | 1702.4 hPa | - | - | - | - |
| 1777396560 | 18.33° C | 82% | 1704.2 hPa | - | - | - | - |
* Rain since midnight (hover to see other rain measurements)
** Current wind speed in m/s (hover to see current wind gust speed)